Location: Camps Bay
(33.9517°S, 18.3844°E)
Time: 16:47:44
(UTC+00:00)

ERS-2 - Pass Details

Date: 18 January 2020
Orbit: 494 x 499 km, 98.5° (Epoch: 25 February)

Event Time Altitude Azimuth Distance (km) Brightness Sun altitude
Rises 01:13:23 0° 165° (SSE) 2,614 6.9 -26.4°
Reaches altitude 10° 01:15:30 10° 163° (SSE) 1,722 5.7 -26.1°
Enters shadow 01:18:14 46° 147° (SSE) 683 3.1 -25.8°
